KQ4HDO Weather Reports


Display with metric or nautical units.
time (UTC)temp
F
wind
direction
speed
MPH
gust
MPH
rain 1hr
in
rain 24hr
in
rain mn
in
humidity
%
barometer
mb
20260510225003 66 324 4.0 11.0 0.00 0.23 0.00 35 1019.1
20260510224503 66 316 5.0 11.0 0.00 0.23 0.00 34 1019.1
20260510224217 67 326 6.0 11.0 0.00 0.23 0.00 33 1019.0
20260510223503 67 314 4.0 12.0 0.00 0.23 0.00 35 1019.2
20260510223003 67 312 6.0 12.0 0.00 0.23 0.00 35 1019.1
20260510222503 68 339 6.0 10.0 0.00 0.23 0.00 34 1019.1
20260510222003 68 309 3.0 9.0 0.00 0.23 0.00 36 1019.0
20260510221718 68 296 2.0 9.0 0.00 0.23 0.00 36 1019.1
20260510221003 68 295 1.0 9.0 0.00 0.23 0.00 34 1019.0
20260510220503 68 307 4.0 9.0 0.00 0.23 0.00 34 1019.0
20260510220003 68 322 4.0 9.0 0.00 0.23 0.00 34 1019.0
20260510215503 68 327 4.0 10.0 0.00 0.23 0.00 33 1019.0
20260510215003 68 328 5.0 10.0 0.00 0.23 0.00 33 1019.0
20260510214718 68 316 5.0 10.0 0.00 0.23 0.00 31 1019.1
20260510214003 69 53 2.0 7.0 0.00 0.23 0.00 34 1019.0
20260510213503 69 330 2.0 9.0 0.00 0.23 0.00 33 1019.0
20260510213004 69 330 3.0 9.0 0.00 0.23 0.00 32 1019.0
20260510212503 70 360 3.0 9.0 0.00 0.23 0.00 33 1019.0
20260510212003 69 345 3.0 10.0 0.00 0.23 0.00 33 1019.0
20260510211503 69 326 4.0 10.0 0.00 0.23 0.00 31 1019.0
20260510211216 70 320 3.0 5.0 0.00 0.23 0.00 34 1019.0
20260510210503 69 334 4.0 5.0 0.00 0.23 0.00 34 1019.2
20260510210003 68 293 2.0 5.0 0.00 0.23 0.00 36 1019.3
20260510205503 68 356 1.0 9.0 0.00 0.23 0.00 34 1019.4
20260510205003 68 323 3.0 9.0 0.00 0.23 0.00 33 1019.4
20260510204503 69 321 4.0 9.0 0.00 0.23 0.00 34 1019.3
20260510204003 69 295 2.0 8.0 0.00 0.23 0.00 36 1019.4
20260510203503 69 327 2.0 11.0 0.00 0.23 0.00 34 1019.3
20260510203003 69 345 4.0 11.0 0.00 0.23 0.00 32 1019.2
20260510202503 70 324 2.0 6.0 0.00 0.23 0.00 33 1019.2
20260510202003 69 338 4.0 7.0 0.00 0.23 0.00 33 1019.1
20260510201717 69 325 4.0 8.0 0.00 0.23 0.00 33 1019.1
20260510201003 69 330 4.0 9.0 0.00 0.23 0.00 30 1019.1
20260510200503 70 338 5.0 9.0 0.00 0.23 0.00 34 1019.1
20260510200003 70 334 4.0 9.0 0.00 0.23 0.00 36 1019.0
20260510195503 70 250 1.0 7.0 0.00 0.23 0.00 33 1019.1
20260510195218 69 310 2.0 8.0 0.00 0.23 0.00 32 1019.2
20260510194503 70 41 4.0 8.0 0.00 0.23 0.00 32 1019.1
20260510194003 69 351 2.0 8.0 0.00 0.23 0.00 34 1019.1
20260510193503 68 324 4.0 11.0 0.00 0.23 0.00 32 1019.3
20260510193003 68 308 5.0 11.0 0.00 0.23 0.00 33 1019.4
20260510192503 69 336 4.0 10.0 0.00 0.23 0.00 37 1019.4
20260510192003 68 351 3.0 11.0 0.00 0.23 0.00 32 1019.3
20260510191504 68 327 4.0 11.0 0.00 0.23 0.00 33 1019.2
20260510191003 69 322 5.0 10.0 0.00 0.23 0.00 32 1019.2
20260510190716 70 37 2.0 7.0 0.00 0.23 0.00 37 1019.3
20260510190003 70 50 3.0 6.0 0.00 0.23 0.00 35 1019.2
20260510185503 69 341 1.0 7.0 0.00 0.23 0.00 36 1019.2
20260510185003 68 79 3.0 8.0 0.00 0.23 0.00 34 1019.0
20260510184503 67 317 4.0 8.0 0.00 0.23 0.00 35 1019.1
20260510184217 67 326 3.0 8.0 0.00 0.23 0.00 36 1019.1
20260510183503 66 329 3.0 11.0 0.00 0.23 0.00 37 1019.0
20260510183003 66 307 2.0 11.0 0.00 0.23 0.00 38 1018.9
20260510182503 66 303 5.0 10.0 0.00 0.23 0.00 40 1018.9
20260510182003 66 338 3.0 9.0 0.00 0.23 0.00 40 1018.9
20260510181503 67 282 4.0 8.0 0.00 0.23 0.00 40 1018.9
20260510181003 65 309 4.0 6.0 0.00 0.23 0.00 38 1019.0
20260510180503 65 318 2.0 6.0 0.00 0.23 0.00 37 1019.0
20260510180003 66 73 3.0 7.0 0.00 0.23 0.00 38 1019.2
20260510175503 66 42 3.0 10.0 0.00 0.23 0.00 37 1019.1
20260510175003 67 340 5.0 10.0 0.00 0.23 0.00 37 1019.2
20260510174503 66 317 5.0 10.0 0.00 0.23 0.00 38 1019.1
20260510174003 67 354 4.0 11.0 0.00 0.23 0.00 36 1019.0
20260510173503 66 357 5.0 11.0 0.00 0.23 0.00 38 1019.2
20260510173003 66 311 4.0 10.0 0.00 0.23 0.00 38 1019.2
20260510172503 66 318 4.0 9.0 0.00 0.23 0.00 38 1019.2
20260510172217 65 352 2.0 7.0 0.00 0.23 0.00 36 1019.2
20260510171503 65 312 2.0 8.0 0.00 0.23 0.00 38 1019.3
20260510171003 66 28 2.0 6.0 0.00 0.23 0.00 37 1019.4
20260510170503 66 61 1.0 8.0 0.00 0.23 0.00 39 1019.4
20260510170004 66 76 5.0 10.0 0.00 0.23 0.00 36 1019.5
20260510165718 65 68 2.0 10.0 0.00 0.23 0.00 39 1019.4
20260510165217 66 63 4.0 10.0 0.00 0.23 0.00 39 1019.4
20260510164503 65 33 3.0 7.0 0.00 0.23 0.00 35 1019.6
20260510164003 65 12 2.0 12.0 0.00 0.23 0.00 38 1019.5
20260510163503 64 20 4.0 13.0 0.00 0.23 0.00 36 1019.5
20260510163003 65 321 6.0 13.0 0.00 0.23 0.00 36 1019.5
20260510162503 65 315 6.0 10.0 0.00 0.23 0.00 36 1019.5
20260510162004 65 34 4.0 11.0 0.00 0.23 0.00 38 1019.5
20260510161503 65 331 5.0 11.0 0.00 0.23 0.00 40 1019.4
20260510161217 66 74 6.0 11.0 0.00 0.23 0.00 37 1019.3
20260510160503 64 317 3.0 9.0 0.00 0.23 0.00 43 1019.4
20260510160003 63 326 4.0 9.0 0.00 0.23 0.00 45 1019.3
20260510155503 63 277 2.0 6.0 0.00 0.23 0.00 49 1019.4
20260510155003 63 307 2.0 6.0 0.00 0.23 0.00 53 1019.5
20260510154503 64 318 2.0 5.0 0.00 0.23 0.00 52 1019.4
20260510154003 63 321 2.0 6.0 0.00 0.23 0.00 56 1019.4
20260510153503 62 344 2.0 7.0 0.00 0.23 0.00 56 1019.5
20260510153003 62 312 3.0 7.0 0.00 0.23 0.00 62 1019.5
20260510152503 61 299 2.0 5.0 0.00 0.23 0.00 62 1019.4
20260510152003 60 303 2.0 8.0 0.00 0.23 0.00 64 1019.4
20260510151503 60 304 2.0 8.0 0.00 0.23 0.00 62 1019.5
20260510151218 60 310 4.0 7.0 0.00 0.23 0.00 64 1019.4
20260510150503 59 302 1.0 4.0 0.00 0.23 0.00 67 1019.3
20260510150003 58 329 2.0 4.0 0.00 0.23 0.00 65 1019.3
20260510145503 57 322 2.0 4.0 0.00 0.23 0.00 66 1019.3
20260510145003 57 309 2.0 4.0 0.00 0.23 0.00 66 1019.3
20260510144503 57 324 2.0 4.0 0.00 0.23 0.00 69 1019.4
20260510144218 57 329 2.0 4.0 0.00 0.23 0.00 68 1019.3
20260510143503 56 328 2.0 3.0 0.00 0.23 0.00 68 1019.2
20260510143003 56 308 1.0 3.0 0.00 0.23 0.00 69 1019.2
20260510142503 56 308 1.0 4.0 0.00 0.23 0.00 69 1019.0
20260510142003 56 20 2.0 4.0 0.00 0.23 0.00 69 1018.8
20260510141719 56 315 2.0 4.0 0.00 0.23 0.00 68 1018.8
20260510141218 56 331 1.0 4.0 0.00 0.23 0.00 68 1018.6
20260510140717 56 327 2.0 5.0 0.00 0.23 0.00 68 1018.6
20260510140003 55 314 2.0 5.0 0.00 0.23 0.00 69 1018.4
20260510135503 55 349 3.0 5.0 0.00 0.23 0.00 70 1018.3
20260510135003 55 334 3.0 5.0 0.00 0.23 0.00 69 1018.1
20260510134717 55 324 2.0 4.0 0.00 0.23 0.00 72 1018.1
20260510134003 55 343 1.0 4.0 0.00 0.23 0.00 74 1018.1
20260510133503 54 321 3.0 4.0 0.00 0.23 0.00 73 1018.2
20260510133003 54 326 3.0 5.0 0.00 0.23 0.00 74 1018.2
20260510132503 54 315 3.0 5.0 0.00 0.23 0.00 73 1018.1
20260510132003 54 328 2.0 5.0 0.00 0.23 0.00 73 1018.1
20260510131503 54 344 0.0 4.0 0.00 0.23 0.00 74 1018.1
20260510131003 54 320 3.0 5.0 0.00 0.23 0.00 74 1018.2
20260510130503 54 313 2.0 6.0 0.00 0.23 0.00 75 1018.0
20260510130003 54 324 2.0 6.0 0.00 0.23 0.00 73 1017.8
20260510125503 54 305 1.0 3.0 0.00 0.23 0.00 76 1017.8
20260510125003 53 326 2.0 4.0 0.00 0.23 0.00 75 1017.7
20260510124503 53 314 2.0 6.0 0.00 0.23 0.00 75 1017.7
20260510124003 53 313 1.0 6.0 0.00 0.23 0.00 75 1017.6
20260510123503 53 313 2.0 5.0 0.00 0.23 0.00 76 1017.5
20260510123003 53 324 3.0 5.0 0.00 0.23 0.00 77 1017.4
20260510122503 52 332 3.0 5.0 0.00 0.23 0.00 77 1017.2
20260510122003 52 328 0.0 4.0 0.00 0.23 0.00 79 1017.2
20260510121503 53 322 2.0 4.0 0.00 0.23 0.00 77 1017.2
20260510121003 53 316 1.0 4.0 0.00 0.23 0.00 77 1017.0
20260510120503 53 294 1.0 4.0 0.00 0.23 0.00 77 1017.0
20260510120003 53 317 2.0 5.0 0.00 0.23 0.00 76 1016.9
20260510115503 53 311 2.0 5.0 0.00 0.23 0.00 77 1016.8
20260510115003 53 328 2.0 5.0 0.00 0.23 0.00 77 1016.7
20260510114718 52 322 1.0 5.0 0.00 0.23 0.00 79 1016.6
20260510114217 52 334 2.0 5.0 0.00 0.23 0.00 80 1016.5
20260510113503 52 312 2.0 4.0 0.00 0.23 0.00 82 1016.4
20260510113003 52 316 2.0 4.0 0.00 0.23 0.00 81 1016.4
20260510112503 52 316 2.0 4.0 0.00 0.23 0.00 81 1016.2
20260510112003 52 275 1.0 4.0 0.00 0.23 0.00 84 1016.2
20260510111503 52 277 1.0 4.0 0.00 0.23 0.00 83 1016.0
20260510111003 52 305 2.0 4.0 0.00 0.23 0.00 84 1015.9
20260510110503 52 319 1.0 3.0 0.00 0.23 0.00 85 1015.8
20260510110003 52 323 1.0 4.0 0.00 0.23 0.00 84 1015.7
20260510105718 53 309 1.0 4.0 0.00 0.23 0.00 84 1015.7
20260510105216 53 326 3.0 4.0 0.00 0.23 0.00 83 1015.5
20260510104503 53 325 2.0 4.0 0.00 0.23 0.00 83 1015.3
20260510104003 53 327 1.0 4.0 0.00 0.23 0.00 84 1015.4
20260510103717 53 324 3.0 5.0 0.00 0.23 0.00 85 1015.3
20260510103216 53 324 3.0 5.0 0.00 0.23 0.00 85 1015.1
20260510102503 53 318 2.0 5.0 0.00 0.23 0.00 85 1015.1
20260510102003 53 318 2.0 6.0 0.00 0.23 0.00 86 1015.0
20260510101503 53 317 2.0 6.0 0.00 0.23 0.00 87 1015.0
20260510101003 53 318 2.0 4.0 0.00 0.23 0.00 88 1015.0
20260510100503 53 309 2.0 3.0 0.00 0.23 0.00 88 1014.9
20260510100218 53 305 2.0 3.0 0.00 0.23 0.00 88 1014.8
20260510095503 54 323 1.0 2.0 0.00 0.23 0.00 86 1014.4
20260510095003 54 323 0.0 4.0 0.00 0.23 0.00 86 1014.5
20260510094503 54 331 2.0 4.0 0.00 0.23 0.00 86 1014.6
20260510094218 54 341 1.0 3.0 0.00 0.23 0.00 86 1014.5
20260510093503 55 276 0.0 3.0 0.00 0.23 0.00 86 1014.6
20260510093003 55 300 2.0 4.0 0.00 0.23 0.00 87 1014.8
20260510092503 55 302 2.0 4.0 0.00 0.23 0.00 87 1014.6
20260510092003 55 309 1.0 3.0 0.00 0.23 0.00 88 1014.6
20260510091503 55 288 1.0 3.0 0.00 0.23 0.00 88 1014.4
20260510091003 55 269 0.0 2.0 0.00 0.23 0.00 89 1014.4
20260510090503 55 291 1.0 3.0 0.00 0.23 0.00 88 1014.2
20260510090218 55 292 1.0 3.0 0.00 0.23 0.00 88 1014.1
20260510085503 56 281 1.0 2.0 0.00 0.23 0.00 87 1014.1
20260510085003 56 298 1.0 3.0 0.00 0.23 0.00 88 1014.1
20260510084717 56 309 1.0 3.0 0.00 0.23 0.00 88 1013.9
20260510084003 56 319 2.0 3.0 0.00 0.23 0.00 88 1013.6
20260510083503 56 303 1.0 2.0 0.00 0.23 0.00 89 1013.5
20260510083003 57 274 1.0 3.0 0.00 0.23 0.00 89 1013.3
20260510082503 57 276 1.0 3.0 0.00 0.23 0.00 90 1013.3
20260510082003 57 313 1.0 2.0 0.00 0.23 0.00 90 1013.0
20260510081503 57 313 1.0 2.0 0.00 0.23 0.00 89 1012.9
20260510081217 57 310 1.0 2.0 0.00 0.23 0.00 89 1012.9
20260510080503 57 309 1.0 2.0 0.00 0.23 0.00 90 1012.9
20260510080003 57 307 1.0 2.0 0.00 0.23 0.00 91 1012.8
20260510075503 57 307 0.0 2.0 0.00 0.23 0.00 92 1012.8
20260510075003 57 307 0.0 2.0 0.00 0.23 0.00 92 1012.9
20260510074503 57 307 0.0 2.0 0.00 0.23 0.00 92 1012.9
20260510074003 57 307 0.0 3.0 0.00 0.23 0.00 93 1012.9
20260510073718 57 308 1.0 3.0 0.00 0.23 0.00 93 1012.9
20260510073003 57 273 1.0 2.0 0.00 0.23 0.00 93 1013.0
20260510072503 57 272 1.0 2.0 0.00 0.23 0.00 93 1013.0
20260510072003 57 272 0.0 2.0 0.00 0.23 0.00 93 1012.9
20260510071503 57 272 0.0 2.0 0.00 0.23 0.00 93 1012.8
20260510071003 57 272 1.0 2.0 0.00 0.23 0.00 93 1012.7
20260510070503 58 360 0.0 2.0 0.00 0.23 0.00 93 1012.5
20260510070004 58 360 0.0 2.0 0.00 0.23 0.00 93 1012.5
20260510065503 58 316 0.0 2.0 0.00 0.23 0.00 92 1012.5
20260510065217 58 272 1.0 2.0 0.00 0.23 0.00 92 1012.4
20260510064503 58 272 1.0 2.0 0.00 0.23 0.00 93 1012.4
20260510064003 58 272 1.0 2.0 0.00 0.23 0.00 92 1012.4
20260510063718 58 272 1.0 2.0 0.00 0.23 0.00 92 1012.4
20260510063217 58 272 0.0 2.0 0.00 0.23 0.00 92 1012.5
20260510062503 58 272 1.0 2.0 0.00 0.23 0.00 92 1012.6
20260510062003 58 272 1.0 2.0 0.00 0.23 0.00 92 1012.5
20260510061503 58 272 0.0 2.0 0.00 0.23 0.00 92 1012.5
20260510061003 58 272 1.0 2.0 0.00 0.23 0.00 91 1012.4
20260510060503 58 272 1.0 2.0 0.00 0.23 0.00 91 1012.4
20260510060217 59 272 0.0 2.0 0.00 0.23 0.00 91 1012.4
20260510055503 59 269 0.0 2.0 0.00 0.23 0.00 92 1012.3
20260510055003 59 269 0.0 2.0 0.00 0.23 0.00 92 1012.3
20260510054503 59 269 1.0 2.0 0.00 0.23 0.00 92 1012.4
20260510054003 59 129 1.0 2.0 0.00 0.23 0.00 92 1012.5
20260510053503 59 360 0.0 2.0 0.00 0.23 0.00 92 1012.4
20260510053004 59 129 0.0 2.0 0.00 0.23 0.00 92 1012.4
20260510052717 59 129 0.0 2.0 0.00 0.23 0.00 92 1012.4
20260510052003 59 129 1.0 2.0 0.00 0.23 0.00 92 1012.2
20260510051503 59 360 0.0 1.0 0.00 0.23 0.00 91 1012.0
20260510051003 60 67 0.0 1.0 0.00 0.23 0.00 91 1011.8
20260510050503 60 360 0.0 2.0 0.00 0.23 0.00 91 1011.7
20260510050004 60 131 1.0 2.0 0.00 0.23 0.00 90 1011.6
20260510045503 60 360 0.0 2.0 0.00 0.23 0.23 90 1011.8
20260510045003 60 84 1.0 4.0 0.00 0.23 0.23 90 1011.7
20260510044503 60 76 1.0 4.0 0.00 0.23 0.23 90 1011.6
20260510044218 60 13 2.0 4.0 0.00 0.23 0.23 91 1011.6
20260510043503 60 339 2.0 4.0 0.00 0.23 0.23 91 1011.8
20260510043003 60 346 2.0 2.0 0.00 0.23 0.23 91 1011.8
20260510042717 60 352 1.0 2.0 0.00 0.23 0.23 91 1011.7
20260510042218 60 352 0.0 2.0 0.01 0.23 0.23 91 1011.7
20260510041503 60 29 1.0 5.0 0.01 0.23 0.23 91 1011.3
20260510041003 60 75 3.0 5.0 0.02 0.23 0.23 90 1011.2
20260510040503 60 90 0.0 4.0 0.04 0.23 0.23 91 1011.3
20260510040003 60 80 0.0 4.0 0.08 0.23 0.23 90 1011.4
20260510035503 60 73 1.0 5.0 0.10 0.23 0.23 90 1011.3
20260510035003 60 95 3.0 5.0 0.13 0.23 0.23 90 1011.1
20260510034503 60 87 3.0 5.0 0.15 0.23 0.23 90 1011.1
20260510034003 60 344 1.0 7.0 0.18 0.23 0.23 90 1011.3
20260510033503 60 87 4.0 7.0 0.23 0.23 0.23 90 1011.2
20260510033003 60 81 3.0 6.0 0.23 0.23 0.23 90 1011.2
20260510032503 60 61 2.0 6.0 0.23 0.23 0.23 90 1011.2
20260510032003 60 6 2.0 8.0 0.22 0.22 0.22 90 1011.1
20260510031503 61 70 5.0 8.0 0.22 0.22 0.22 89 1011.1
20260510031003 61 77 3.0 8.0 0.21 0.21 0.21 89 1011.8
20260510030503 61 350 3.0 10.0 0.19 0.19 0.19 88 1012.4
20260510030003 61 312 4.0 16.0 0.15 0.15 0.15 88 1012.6
20260510025716 61 296 5.0 16.0 0.13 0.13 0.13 87 1012.5
20260510025003 62 294 6.0 17.0 0.10 0.10 0.10 86 1012.3
20260510024503 62 300 8.0 22.0 0.08 0.09 0.08 84 1012.2
20260510024217 63 296 9.0 25.0 0.06 0.07 0.06 83 1012.2
20260510023716 64 316 14.0 25.0 0.01 0.03 0.01 79 1011.6
20260510023003 66 297 9.0 18.0 0.00 0.03 0.00 73 1010.9
20260510022503 66 293 5.0 10.0 0.00 0.04 0.00 75 1009.5
20260510022217 67 319 1.0 2.0 0.00 0.04 0.00 72 1008.6
20260510021503 67 319 1.0 2.0 0.00 0.05 0.00 72 1008.2
20260510021003 67 339 0.0 2.0 0.00 0.06 0.00 70 1008.0
20260510020503 67 319 0.0 2.0 0.00 0.07 0.00 70 1007.9
20260510020003 67 0 0.0 0.0 0.00 0.09 0.00 69 1007.9
20260510015503 68 360 0.0 2.0 0.00 0.11 0.00 68 1007.8
20260510015217 68 360 0.0 2.0 0.00 0.13 0.00 68 1007.8
20260510014503 68 319 1.0 2.0 0.00 0.16 0.00 66 1007.7
20260510014003 68 0 0.0 0.0 0.00 0.18 0.00 67 1007.7
20260510013503 68 0 0.0 0.0 0.00 0.21 0.00 66 1007.6
20260510013003 68 0 0.0 0.0 0.00 0.23 0.00 66 1007.6
20260510012503 68 0 0.0 0.0 0.00 0.24 0.00 66 1007.6
20260510012003 69 0 0.0 0.0 0.00 0.25 0.00 63 1007.5
20260510011503 69 0 0.0 0.0 0.00 0.27 0.00 62 1007.5
20260510011003 69 0 0.0 0.0 0.00 0.28 0.00 62 1007.5
20260510010503 70 0 0.0 0.0 0.00 0.30 0.00 59 1007.5
20260510010003 70 0 0.0 0.0 0.00 0.32 0.00 59 1007.4
20260510005504 70 0 0.0 0.0 0.00 0.32 0.00 58 1007.4
20260510005003 71 0 0.0 0.0 0.00 0.34 0.00 59 1007.3
20260510004503 72 0 0.0 0.0 0.00 0.34 0.00 54 1007.3
20260510004217 73 360 0.0 2.0 0.00 0.34 0.00 54 1007.3
20260510003503 74 339 0.0 2.0 0.00 0.35 0.00 51 1007.3
20260510003003 74 360 0.0 2.0 0.00 0.35 0.00 50 1007.3
20260510002503 75 319 0.0 2.0 0.00 0.35 0.00 50 1007.2
20260510002003 76 360 0.0 2.0 0.00 0.35 0.00 48 1007.2
20260510001717 76 360 0.0 2.0 0.00 0.35 0.00 48 1007.1
20260510001003 78 319 0.0 2.0 0.00 0.36 0.00 44 1007.1
20260510000503 78 319 0.0 2.0 0.00 0.36 0.00 47 1007.1
20260510000003 79 319 1.0 3.0 0.00 0.37 0.00 42 1007.1
20260509235503 79 317 1.0 3.0 0.00 0.38 0.00 41 1007.1
20260509235003 79 315 0.0 2.0 0.00 0.38 0.00 40 1007.1
20260509234503 79 304 2.0 3.0 0.00 0.39 0.00 39 1007.1
20260509234003 80 318 1.0 3.0 0.00 0.41 0.00 40 1007.1
20260509233503 80 278 1.0 4.0 0.00 0.43 0.00 39 1007.1
20260509233218 80 274 1.0 4.0 0.00 0.44 0.00 38 1007.1
20260509232503 80 292 2.0 6.0 0.00 0.46 0.00 39 1007.2
20260509232003 80 318 2.0 6.0 0.00 0.47 0.00 40 1007.1
20260509231503 80 306 4.0 6.0 0.00 0.47 0.00 38 1007.1
20260509231003 80 308 2.0 8.0 0.00 0.47 0.00 39 1007.1
20260509230503 80 267 4.0 8.0 0.00 0.48 0.00 38 1007.0
20260509230003 80 267 1.0 7.0 0.00 0.48 0.00 39 1007.0
20260509225503 79 304 3.0 6.0 0.00 0.48 0.00 39 1007.0